Overview Statistics Trail Chart Weather Telemetry Raw packets
 

This is the latest recevied weather packets stored in our database for station/object K5IDL. If no packets are shown the sender has not sent any weather packets the latest 10 day(s).

<< 86 87 88 89 90 91 92 >>
Time Temp. Humidity Pressure Rain* Wind** Luminosity Snow
1788069765 30.56° C 49% 1016.1 hPa 0 mm - 0 W/m² -
1788069459 30.56° C 48% 1016.2 hPa 0 mm - 0 W/m² -
1788069156 30.56° C 48% 1016.2 hPa 0 mm - 0 W/m² -
1788068850 30.56° C 49% 1016.1 hPa 0 mm - 0 W/m² -
1788068541 30.56° C 50% 1016.2 hPa 0 mm - 0 W/m² -
1788068236 30.56° C 51% 1016.1 hPa 0 mm - 0 W/m² -
1788067935 30.56° C 50% 1016.2 hPa 0 mm - 0 W/m² -
1788067630 30.56° C 51% 1016.3 hPa 0 mm - 0 W/m² -
1788067326 30.56° C 52% 1016.2 hPa 0 mm - 0 W/m² -
1788067025 30.56° C 52% 1016.1 hPa 0 mm - 0 W/m² -
1788066721 30.56° C 52% 1016.4 hPa 0 mm - 0 W/m² -
1788066420 30.56° C 52% 1016.1 hPa 0 mm - 0 W/m² -
1788066116 30° C 53% 1016 hPa 0 mm - 0 W/m² -
1788065813 29.44° C 54% 1016.1 hPa 0 mm - 0 W/m² -
1788065509 30° C 53% 1016 hPa 0 mm - 0 W/m² -
1788065207 30° C 52% 1015.8 hPa 0 mm - 0 W/m² -
1788064903 30.56° C 51% 1016.1 hPa 0 mm - 0 W/m² -
1788064598 30.56° C 50% 1015.8 hPa 0 mm - 0 W/m² -
1788064297 31.11° C 49% 1015.7 hPa 0 mm - 0 W/m² -
1788063995 31.11° C 47% 1015.9 hPa 0 mm - 0 W/m² -
1788063691 31.11° C 49% 1015.9 hPa 0 mm - 0 W/m² -
1788063389 31.11° C 47% 1015.9 hPa 0 mm - 0 W/m² -
1788063088 31.11° C 47% 1015.8 hPa 0 mm - 0 W/m² -
1788062784 30.56° C 49% 1015.9 hPa 0 mm - 0 W/m² -
1788062480 30.56° C 55% 1016 hPa 0 mm - 0 W/m² -

* Rain latest hour (hover to see other rain measurements)
** Current wind speed in m/s (hover to see current wind gust speed)